This is the latest recevied weather packets stored in our database for station/object W5ADC. If no packets are shown the sender has not sent any weather packets the latest 10 day(s).
| Time | Temp. | Humidity | Pressure | Rain* | Wind** | Luminosity | Snow |
|---|---|---|---|---|---|---|---|
| 1777156042 | 29.44° C | 66% | 1000.6 hPa | 0 mm | - | 246 W/m² | - |
| 1777155739 | 30° C | 66% | 1000.8 hPa | 0 mm | - | 151 W/m² | - |
| 1777155435 | 30° C | 66% | 1000.8 hPa | 0 mm | - | 289 W/m² | - |
| 1777155132 | 29.44° C | 67% | 1000.8 hPa | 0 mm | - | 393 W/m² | - |
| 1777154828 | 30° C | 66% | 1001.1 hPa | 0 mm | - | 434 W/m² | - |
| 1777154525 | 30° C | 66% | 1001 hPa | 0 mm | - | 463 W/m² | - |
| 1777154221 | 30° C | 67% | 1001.1 hPa | 0 mm | - | 328 W/m² | - |
| 1777153917 | 30° C | 66% | 1001 hPa | 0 mm | - | 516 W/m² | - |
| 1777153613 | 30° C | 66% | 1001.1 hPa | 0 mm | - | 579 W/m² | - |
| 1777153309 | 30° C | 66% | 1001 hPa | 0 mm | - | 606 W/m² | - |
| 1777153006 | 30° C | 67% | 1001.1 hPa | 0 mm | - | 584 W/m² | - |
| 1777152702 | 30° C | 67% | 1001 hPa | 0 mm | - | 486 W/m² | - |
| 1777152399 | 30° C | 67% | 1001.2 hPa | 0 mm | - | 263 W/m² | - |
| 1777152095 | 30° C | 66% | 1001.2 hPa | 0 mm | - | 532 W/m² | - |
| 1777151790 | 30° C | 67% | 1001.4 hPa | 0 mm | - | 577 W/m² | - |
| 1777151487 | 30° C | 67% | 1001.4 hPa | 0 mm | - | 651 W/m² | - |
| 1777151183 | 30° C | 68% | 1001.2 hPa | 0 mm | - | 280 W/m² | - |
| 1777150877 | 29.44° C | 67% | 1001.3 hPa | 0 mm | - | 683 W/m² | - |
| 1777150573 | 28.89° C | 69% | 1001.4 hPa | 0 mm | - | 406 W/m² | - |
| 1777150269 | 29.44° C | 68% | 1001.5 hPa | 0 mm | - | 253 W/m² | - |
| 1777149967 | 30° C | 68% | 1001.5 hPa | 0 mm | - | 305 W/m² | - |
| 1777149663 | 30° C | 68% | 1001.6 hPa | 0 mm | - | 701 W/m² | - |
| 1777149360 | 30° C | 68% | 1001.6 hPa | 0 mm | - | 786 W/m² | - |
| 1777149055 | 30.56° C | 68% | 1001.7 hPa | 0 mm | - | 279 W/m² | - |
| 1777148750 | 30° C | 66% | 1001.8 hPa | 0 mm | - | 737 W/m² | - |
* Rain latest hour (hover to see other rain measurements)
** Current wind speed in m/s (hover to see current wind gust speed)